Regional Weather Roundup
Issued by NWS

Home | Current Version | Previous Version | Graphics & Text | Print | Product List | Glossary On
Versions: 1 2 3 4 5 6 7 8 9 10 11 12 13 14 15 16 17 18 19 20 21 22 23 24 25 26 27 28 29 30 31 32 33 34 35 36 37 38 39 40 41 42 43 44 45 46 47 48 49 50
498
ASUS44 KLIX 231610
RWRLA
LOUISIANA WEATHER ROUNDUP
NATIONAL WEATHER SERVICE NEW ORLEANS LA
1100 AM CDT TUE SEP 23 2014

NOTE: "FAIR" INDICATES FEW OR NO CLOUDS BELOW 12,000 FEET WITH NO
      SIGNIFICANT WEATHER AND/OR OBSTRUCTIONS TO VISIBILITY.
      SKY/WX - SKY CONDITION AND SIGNIFICANT WEATHER.
      TMP - AIR TEMPERATURE.    DP   - DEWPOINT TEMPERATURE.
      RH  - RELATIVE HUMIDITY.  PRES - PRESSURE.
      HX  - HEAT INDEX.         WCI  - WIND CHILL INDEX.

*  THESE STATIONS ARE NOT NWS OR FAA STATIONS AND ARE NOT UNDER
   NWS QUALITY CONTROL.

LAZ040-048-061>063-065-066-069-231700-
SOUTHEAST LOUISIANA

CITY           SKY/WX    TMP DP  RH WIND       PRES   REMARKS
N.O. AUDUBON   NOT AVBL
N.O. INTL ARPT MOSUNNY   79  58  48 NE13      30.11R
N.O. LAKEFRONT SUNNY     77  59  53 NE12      30.12R
N.O. DOWNTOWN* FAIR      79  54  41 NE9       30.11S
SLIDELL        SUNNY     77  57  50 E5        30.11S
BATON ROUGE    SUNNY     77  56  48 NE6       30.14R
BOOTHVILLE     SUNNY     81  64  56 NE10G18   30.08S
BELLE CHASSE   MOSUNNY   80  58  46 E14       30.10S
BOGALUSA*      FAIR      78  56  46 NE6       30.15S
GALLIANO*      NOT AVBL
NEW ROADS*     FAIR      76  55  47 E8        30.14S
GONZALES*      FAIR      76  59  55 E3        30.12S
HAMMOND*       SUNNY     79  55  44 NE3       30.14S
HOUMA*         SUNNY    N/A N/A N/A NE12      30.10S
PORT FOURCHON* SUNNY     81  64  57 NE15G23   30.11S

$$

LAZ041-044-053-054-231700-
SOUTHWEST LOUISIANA

CITY           SKY/WX    TMP DP  RH WIND       PRES   REMARKS
LAKE CHARLES   SUNNY     75  58  55 NE12      30.13R
LAFAYETTE      SUNNY     77  58  51 E7        30.13R
PATTERSON      SUNNY     79  63  57 NE10      30.13S
SALT POINT       N/A     82  61  48 MISG      30.09S
NEW IBERIA     SUNNY     78  59  51 NE8       30.13R
CHENAULT AIRPK NOT AVBL

$$

LAZ027-028-231700-
CENTRAL LOUISIANA

CITY           SKY/WX    TMP DP  RH WIND       PRES   REMARKS
FORT POLK      SUNNY     75  55  50 E7        30.15S
ALEXANDRIA INT SUNNY     74  55  51 E8        30.15R
ALEXANDRIA     SUNNY     75  58  55 NE6       30.17R

$$

LAZ001-002-231700-
NORTHWEST LOUISIANA

CITY           SKY/WX    TMP DP  RH WIND       PRES   REMARKS
SHREVEPORT     PTSUNNY   75  53  46 VRB6      30.20S
BARKSDALE AFB  SUNNY     75  51  43 E8        30.21S
DTN SHREVEPORT SUNNY     73  52  47 E7        30.21S

$$

LAZ014-016-231700-
NORTHEAST LOUISIANA

CITY           SKY/WX    TMP DP  RH WIND       PRES   REMARKS
MONROE         SUNNY     75  52  44 E8        30.20S
TALLULAH       SUNNY     74  53  48 VRB3      30.18S

$$




USA.gov is the U.S. government's official web portal to all federal, state and local government web resources and services.